Regional Weather Roundup
Issued by NWS

Home | Current Version | Previous Version | Graphics & Text | Print | Product List | Glossary On
Versions: 1 2 3 4 5 6 7 8 9 10 11 12 13 14 15 16 17 18 19 20 21 22 23 24 25 26 27 28 29 30 31 32 33 34 35 36 37 38 39 40 41 42 43 44 45 46 47 48 49 50
640
ASUS43 KMKX 221411
RWRWI

WISCONSIN REGIONAL WEATHER ROUNDUP
NATIONAL WEATHER SERVICE MILWAUKEE/SULLIVAN WI
900 AM CDT FRI SEP 22 2017

NOTE: "FAIR" INDICATES FEW OR NO CLOUDS BELOW 12,000 FEET WITH NO
SIGNIFICANT WEATHER AND/OR OBSTRUCTIONS TO VISIBILITY.

WIZ001-002-006>008-014>016-023>028-221500-
NORTHWEST WISCONSIN

CITY           SKY/WX    TMP DP  RH WIND       PRES   REMARKS
SUPERIOR ARPT  CLOUDY    65  64  98 E9        29.88S
ASHLAND        TSTM      67  64  90 N5        29.93R
HAYWARD        TSTM      69  67  93 NE24G31   29.89F VSB 1/4
SIREN          LGT RAIN  71  69  93 N8        29.89F
CUMBERLAND     CLOUDY    72  68  88 S7        29.89F
RICE LAKE      CLOUDY    74  69  85 SE7       29.90F
CHETEK           N/A     74  71  88 S5        29.90F
LADYSMITH      CLOUDY    73  69  85 S10       29.94F
EAU CLAIRE     MOSUNNY   75  69  81 S10       29.91R
MENOMONIE      MOSUNNY   76  71  84 E5        29.90S
NEW RICHMOND   CLOUDY    75  68  79 S7        29.88R
OSCEOLA        CLOUDY    76  69  79 S3        29.91R
$$

WIZ003>005-009-010-017-018-221500-
NORTH CENTRAL WISCONSIN

CITY           SKY/WX    TMP DP  RH WIND       PRES   REMARKS
MANITOWISH WTR CLOUDY    72  72 100 S6        29.98R
ARBOR VITAE    CLOUDY    74  70  85 S9        29.99R
WOODRUFF       CLOUDY    74  70  85 S9        29.99R
RHINELANDER    SUNNY     76  70  82 SW10G17   30.00S
EAGLE RIVER    SUNNY     73  69  85 SW6       30.00R
LAND O LAKES   CLOUDY    73  67  81 S6        30.01R
PHILLIPS       CLOUDY    71  69  93 S7        29.96R
TOMAHAWK       CLOUDY    73  67  82 CALM      29.99S
MEDFORD        CLOUDY    73  68  83 S10G17    29.97F
MERRILL        SUNNY     74  69  84 S5        29.99S
$$

WIZ029-030-035-036-043>047-221500-
CENTRAL WISCONSIN

CITY           SKY/WX    TMP DP  RH WIND       PRES   REMARKS
WAUSAU         SUNNY     74  68  81 S8        29.98S
MOSINEE        MOSUNNY   73  70  88 S10       30.01R
MARSHFIELD     SUNNY     74  67  78 S9        29.98S
STEVENS POINT  MOSUNNY   73  69  85 S8        30.01S
WAUPACA        MOSUNNY   76  71  86 S6        30.01S
WAUTOMA        SUNNY     74  69  85 CALM      30.02R
WISC RAPIDS    CLOUDY    77  69  76 S9        30.01R
CAMP DOUGLAS   MOSUNNY   77  70  78 S7        29.99R
$$

WIZ011>013-019>022-031-037>040-048>050-221500-
NORTHEAST WISCONSIN

CITY           SKY/WX    TMP DP  RH WIND       PRES   REMARKS
ANTIGO         MOSUNNY   69  67  93 S9        30.02S
SHAWANO        MOSUNNY   75  69  81 SW3       30.00R
OCONTO         SUNNY     75  70  84 SW5       30.00R
STURGEON BAY   SUNNY     76  69  79 S10       30.02F
GREEN BAY      SUNNY     77  71  82 S9        30.02R
MANITOWOC      SUNNY     75  70  84 S6        30.03S
APPLETON       MOSUNNY   73  72  94 S8        30.01R
CLINTONVILLE   PTSUNNY   75  70  83 S3        30.01R
OSHKOSH        SUNNY     76  70  82 S10       30.02R
$$

WIZ032>034-041-042-053>061-221500-
SOUTHWEST WISCONSIN

CITY           SKY/WX    TMP DP  RH WIND       PRES   REMARKS
LA CROSSE      CLOUDY    81  70  69 S15       29.94R HX  84
SPARTA         SUNNY     78  68  72 S8        29.97R HX  80
VIROQUA        CLOUDY    76  70  82 S12       30.00R
BOSCOBEL       SUNNY     80  68  66 S7        29.99R HX  83
PRAIRIE DU CHI SUNNY     79  66  65 SE7       29.98R HX  81
PLATTEVILLE    SUNNY     76  72  85 S13       30.03R
$$

WIZ056-057-062-063-064-067-068-221500-
SOUTH CENTRAL WISCONSIN

CITY           SKY/WX    TMP DP  RH WIND       PRES   REMARKS
REEDSBURG      SUNNY     76  70  83 S6        30.01R
BARABOO/DELLS  SUNNY     76  66  71 S10       30.02R
LONE ROCK      SUNNY     77  70  79 S6        30.01R
MINERAL POINT  SUNNY     75  72  88 S9        30.03S
MADISON        MOSUNNY   75  68  78 S8        30.03S
MIDDLETON      SUNNY     77  69  76 S3        30.04R
WATERTOWN      SUNNY     76  71  84 S8        30.04S
MONROE         SUNNY     73  68  83 S10       30.05R
JANESVILLE     MOSUNNY   79  68  69 S8        30.05R HX  81
$$

WIZ051-052-058>065-066-070>072-221500-
SOUTHEAST WISCONSIN

CITY           SKY/WX    TMP DP  RH WIND       PRES   REMARKS
MILWAUKEE      MOSUNNY   80  69  69 SW10      30.05S HX  83
WAUKESHA       SUNNY     73  66  78 S8        30.07S
MILWAUKEE/TIMM SUNNY     79  66  65 SW6       30.06S HX  81
RACINE         SUNNY     81  70  69 SW7       30.07S HX  84
BURLINGTON     SUNNY     78  71  79 SW6       30.05S HX  80
KENOSHA        SUNNY     81  69  67 SW8       30.06S HX  84
FOND DU LAC    SUNNY     78  67  68 S9        30.03S HX  80
SHEBOYGAN      SUNNY     74  72  93 S6        30.04S FOG
WEST BEND        N/A     75  70  83 S5        30.05S
JUNEAU         SUNNY     75  69  80 S8        30.06R
$$

LSZ147-162-221500-
LAKE SUPERIOR

STATION/POSITION TIME  TEMP    WIND        PRES    WAVE
                       AIR SEA DIR/SP/G            HT/PER
                 (UTC) (F)     (DEG/KT/KT) (MB)    (FT/S)
W MID LAKE BUOY  1350   60 54  280/  4/  6 1012.8R   1/ 4
DEVILS ISLAND    1400   63     300/ 16/ 18 1013.8R
PORT WING        1220   61     240/  2/  5 1012.2R
SAXON HARBOR     1330   75     190/  4/  9 1012.5R
$$

LMZ867-665-643>646-221500-
LAKE MICHIGAN

STATION/POSITION TIME  TEMP    WIND        PRES    WAVE
                       AIR SEA DIR/SP/G            HT/PER
                 (UTC) (F)     (DEG/KT/KT) (MB)    (FT/S)
S GREEN BAY BUOY 1400   70 67  200/  8/  8 1015.8
N MID LAKE BUOY  1350   68 66  180/ 14/ 16 1016.4F   2/ 3
NORTHPORT PIER   1340   72     160/  8/ 11 1015.9R
KEWAUNEE LAKESHO 1342   63     190/  7/  8 1015.6F
SHEBOYGAN LAKESH 1400   72     180/  8/  9 1016.6S
PORT WASHINGTON  1330   77     190/  4/  6 1017.9S
ATWATER BUOY     1309   76 65  230/ 10/ 14 1017.3F
MILWAUKEE LAKESH 1350   79     240/ 11/ 12   N/A
S MID LAKE BUOY  1350   71 69  150/ 10/ 10 1018.2R   1
KENOSHA   LAKESH 1400   73     180/  9/ 13 1017.6
$$

TC  - TEMPERATURE IN CELSIUS
VSB - VISIBILITY IN STATUTE MILES
WCI - WIND CHILL INDEX
HX  - HEAT INDEX





USA.gov is the U.S. government's official web portal to all federal, state and local government web resources and services.